Time,TemperatureF,DewpointF,PressureIn,WindDirection,WindDirectionDegrees,WindSpeedMPH,WindSpeedGustMPH,Humidity,HourlyPrecipIn,Conditions,Clouds,dailyrainin,SolarRadiationWatts/m^2,SoftwareType,DateUTC
2013-11-08 00:02:00,52.7,27.8,29.97,NW,322,1.0,3.0,38,0.00,,,0.00,0,HR-IXPWINDi_r2_v1.2.,2013-11-08 08:02:00,
2013-11-08 00:07:00,53.6,27.3,29.98,NW,322,2.0,3.0,36,0.00,,,0.00,0,HR-IXPWINDi_r2_v1.2.,2013-11-08 08:07:00,
2013-11-08 00:12:00,53.4,27.1,29.97,NW,322,2.0,3.0,36,0.00,,,0.00,0,HR-IXPWINDi_r2_v1.2.,2013-11-08 08:12:00,
2013-11-08 00:17:00,53.4,27.1,29.98,NW,322,0.0,3.0,36,0.00,,,0.00,0,HR-IXPWINDi_r2_v1.2.,2013-11-08 08:17:00,
2013-11-08 00:23:00,52.9,27.3,29.97,NW,322,1.0,3.0,37,0.00,,,0.00,0,HR-IXPWINDi_r2_v1.2.,2013-11-08 08:23:00,
2013-11-08 00:28:00,53.7,26.7,29.98,NW,322,1.0,3.0,35,0.00,,,0.00,0,HR-IXPWINDi_r2_v1.2.,2013-11-08 08:28:00,
2013-11-08 00:33:00,53.5,27.2,29.98,NW,322,0.0,2.0,36,0.00,,,0.00,0,HR-IXPWINDi_r2_v1.2.,2013-11-08 08:33:00,
2013-11-08 00:38:00,52.1,28.5,29.97,NW,322,0.0,1.0,40,0.00,,,0.00,0,HR-IXPWINDi_r2_v1.2.,2013-11-08 08:38:00,
2013-11-08 00:44:00,50.9,28.6,29.98,NW,322,1.0,3.0,42,0.00,,,0.00,0,HR-IXPWINDi_r2_v1.2.,2013-11-08 08:44:00,
2013-11-08 00:49:00,51.4,27.9,29.98,NW,322,2.0,3.0,40,0.00,,,0.00,0,HR-IXPWINDi_r2_v1.2.,2013-11-08 08:49:00,
2013-11-08 00:54:00,52.3,28.1,29.97,NW,322,1.0,3.0,39,0.00,,,0.00,0,HR-IXPWINDi_r2_v1.2.,2013-11-08 08:54:00,
2013-11-08 00:59:00,51.8,28.2,29.97,NW,322,1.0,3.0,40,0.00,,,0.00,0,HR-IXPWINDi_r2_v1.2.,2013-11-08 08:59:00,
2013-11-08 01:04:00,51.5,29.1,29.97,NW,322,0.0,3.0,42,0.00,,,0.00,0,HR-IXPWINDi_r2_v1.2.,2013-11-08 09:04:00,
2013-11-08 01:10:00,50.4,28.7,29.98,NW,322,0.0,3.0,43,0.00,,,0.00,0,HR-IXPWINDi_r2_v1.2.,2013-11-08 09:10:00,
2013-11-08 01:15:00,49.7,29.2,29.98,NW,322,1.0,2.0,45,0.00,,,0.00,0,HR-IXPWINDi_r2_v1.2.,2013-11-08 09:15:00,
2013-11-08 01:20:00,49.2,30.8,29.97,NW,322,1.0,2.0,49,0.00,,,0.00,0,HR-IXPWINDi_r2_v1.2.,2013-11-08 09:20:00,
2013-11-08 01:25:00,49.0,30.1,29.98,NW,322,0.0,2.0,48,0.00,,,0.00,0,HR-IXPWINDi_r2_v1.2.,2013-11-08 09:25:00,
2013-11-08 01:30:00,48.6,31.3,29.97,NW,322,1.0,2.0,51,0.00,,,0.00,0,HR-IXPWINDi_r2_v1.2.,2013-11-08 09:30:00,
2013-11-08 01:35:00,48.3,31.0,29.97,NW,322,1.0,2.0,51,0.00,,,0.00,0,HR-IXPWINDi_r2_v1.2.,2013-11-08 09:35:00,
2013-11-08 01:41:00,48.4,30.1,29.97,NW,322,2.0,2.0,49,0.00,,,0.00,0,HR-IXPWINDi_r2_v1.2.,2013-11-08 09:41:00,
2013-11-08 01:46:00,48.5,29.7,29.97,NW,323,3.0,3.0,48,0.00,,,0.00,0,HR-IXPWINDi_r2_v1.2.,2013-11-08 09:46:00,
2013-11-08 01:51:00,49.6,27.4,29.97,NW,323,1.0,4.0,42,0.00,,,0.00,0,HR-IXPWINDi_r2_v1.2.,2013-11-08 09:51:00,
2013-11-08 01:56:00,51.3,27.2,29.97,NW,323,2.0,4.0,39,0.00,,,0.00,0,HR-IXPWINDi_r2_v1.2.,2013-11-08 09:56:00,
2013-11-08 02:02:00,53.0,26.1,29.97,WNW,303,1.0,5.0,35,0.00,,,0.00,0,HR-IXPWINDi_r2_v1.2.,2013-11-08 10:02:00,
2013-11-08 02:07:00,53.4,25.7,29.97,NW,308,1.0,5.0,34,0.00,,,0.00,0,HR-IXPWINDi_r2_v1.2.,2013-11-08 10:07:00,
2013-11-08 02:12:00,52.3,26.8,29.97,NW,310,1.0,3.0,37,0.00,,,0.00,0,HR-IXPWINDi_r2_v1.2.,2013-11-08 10:12:00,
2013-11-08 02:17:00,51.5,28.0,29.97,NW,310,0.0,3.0,40,0.00,,,0.00,0,HR-IXPWINDi_r2_v1.2.,2013-11-08 10:17:00,
2013-11-08 02:22:00,50.9,26.2,29.97,NW,309,1.0,4.0,38,0.00,,,0.00,0,HR-IXPWINDi_r2_v1.2.,2013-11-08 10:22:00,
2013-11-08 02:28:00,51.2,28.3,29.96,NW,309,0.0,4.0,41,0.00,,,0.00,0,HR-IXPWINDi_r2_v1.2.,2013-11-08 10:28:00,
2013-11-08 02:33:00,49.7,28.7,29.97,NW,309,1.0,2.0,44,0.00,,,0.00,0,HR-IXPWINDi_r2_v1.2.,2013-11-08 10:33:00,
2013-11-08 02:38:00,49.3,29.4,29.97,NW,309,0.0,2.0,46,0.00,,,0.00,0,HR-IXPWINDi_r2_v1.2.,2013-11-08 10:38:00,
2013-11-08 02:43:00,48.7,30.4,29.97,NW,309,1.0,2.0,49,0.00,,,0.00,0,HR-IXPWINDi_r2_v1.2.,2013-11-08 10:43:00,
2013-11-08 02:48:00,48.0,30.7,29.97,NW,309,1.0,2.0,51,0.00,,,0.00,0,HR-IXPWINDi_r2_v1.2.,2013-11-08 10:48:00,
2013-11-08 02:53:00,47.5,31.2,29.97,NW,309,0.0,1.0,53,0.00,,,0.00,0,HR-IXPWINDi_r2_v1.2.,2013-11-08 10:53:00,
2013-11-08 02:58:00,46.8,30.5,29.96,NW,309,2.0,2.0,53,0.00,,,0.00,0,HR-IXPWINDi_r2_v1.2.,2013-11-08 10:58:00,
2013-11-08 03:03:00,46.8,31.5,29.96,NW,309,1.0,2.0,55,0.00,,,0.00,0,HR-IXPWINDi_r2_v1.2.,2013-11-08 11:03:00,
2013-11-08 03:08:00,46.4,30.2,29.96,NW,309,1.0,2.0,53,0.00,,,0.00,0,HR-IXPWINDi_r2_v1.2.,2013-11-08 11:08:00,
2013-11-08 03:14:00,46.3,31.0,29.96,NW,309,1.0,2.0,55,0.00,,,0.00,0,HR-IXPWINDi_r2_v1.2.,2013-11-08 11:14:00,
2013-11-08 03:19:00,46.2,30.4,29.96,NW,309,0.0,2.0,54,0.00,,,0.00,0,HR-IXPWINDi_r2_v1.2.,2013-11-08 11:19:00,
2013-11-08 03:25:00,46.2,30.4,29.96,NW,309,2.0,3.0,54,0.00,,,0.00,0,HR-IXPWINDi_r2_v1.2.,2013-11-08 11:25:00,
2013-11-08 03:30:00,46.1,29.9,29.96,NW,309,1.0,3.0,53,0.00,,,0.00,0,HR-IXPWINDi_r2_v1.2.,2013-11-08 11:30:00,
2013-11-08 03:35:00,46.4,30.2,29.96,NW,309,1.0,3.0,53,0.00,,,0.00,0,HR-IXPWINDi_r2_v1.2.,2013-11-08 11:35:00,
2013-11-08 03:40:00,46.4,30.6,29.96,NW,309,1.0,3.0,54,0.00,,,0.00,0,HR-IXPWINDi_r2_v1.2.,2013-11-08 11:40:00,
2013-11-08 03:45:00,46.1,29.4,29.96,NW,309,2.0,3.0,52,0.00,,,0.00,0,HR-IXPWINDi_r2_v1.2.,2013-11-08 11:45:00,
2013-11-08 03:50:00,47.1,27.9,29.96,NW,308,1.0,3.0,47,0.00,,,0.00,0,HR-IXPWINDi_r2_v1.2.,2013-11-08 11:50:00,
2013-11-08 03:55:00,48.4,26.9,29.96,WNW,298,1.0,3.0,43,0.00,,,0.00,0,HR-IXPWINDi_r2_v1.2.,2013-11-08 11:55:00,
2013-11-08 04:01:00,48.1,28.8,29.97,WNW,298,1.0,3.0,47,0.00,,,0.00,0,HR-IXPWINDi_r2_v1.2.,2013-11-08 12:01:00,
2013-11-08 04:06:00,47.4,29.7,29.97,WNW,298,2.0,3.0,50,0.00,,,0.00,0,HR-IXPWINDi_r2_v1.2.,2013-11-08 12:06:00,
2013-11-08 04:11:00,48.0,27.1,29.97,WNW,301,1.0,4.0,44,0.00,,,0.00,0,HR-IXPWINDi_r2_v1.2.,2013-11-08 12:11:00,
2013-11-08 04:16:00,49.8,26.4,29.97,WNW,300,1.0,4.0,40,0.00,,,0.00,0,HR-IXPWINDi_r2_v1.2.,2013-11-08 12:16:00,
2013-11-08 04:21:00,49.5,29.0,29.97,NW,317,2.0,4.0,45,0.00,,,0.00,0,HR-IXPWINDi_r2_v1.2.,2013-11-08 12:21:00,
2013-11-08 04:26:00,49.5,27.9,29.97,NW,317,1.0,4.0,43,0.00,,,0.00,0,HR-IXPWINDi_r2_v1.2.,2013-11-08 12:26:00,
2013-11-08 04:32:00,48.5,27.6,29.97,NW,317,0.0,2.0,44,0.00,,,0.00,0,HR-IXPWINDi_r2_v1.2.,2013-11-08 12:32:00,
2013-11-08 04:37:00,47.7,27.9,29.97,NW,317,0.0,1.0,46,0.00,,,0.00,0,HR-IXPWINDi_r2_v1.2.,2013-11-08 12:37:00,
2013-11-08 04:42:00,47.2,27.5,29.97,NW,317,1.0,2.0,46,0.00,,,0.00,0,HR-IXPWINDi_r2_v1.2.,2013-11-08 12:42:00,
2013-11-08 04:47:00,46.3,28.7,29.97,NW,317,1.0,2.0,50,0.00,,,0.00,0,HR-IXPWINDi_r2_v1.2.,2013-11-08 12:47:00,
2013-11-08 04:52:00,45.9,29.2,29.97,NW,317,1.0,2.0,52,0.00,,,0.00,0,HR-IXPWINDi_r2_v1.2.,2013-11-08 12:52:00,
2013-11-08 04:57:00,45.9,28.3,29.97,NW,317,1.0,2.0,50,0.00,,,0.00,0,HR-IXPWINDi_r2_v1.2.,2013-11-08 12:57:00,
2013-11-08 05:02:00,45.8,29.6,29.97,NW,317,0.0,2.0,53,0.00,,,0.00,0,HR-IXPWINDi_r2_v1.2.,2013-11-08 13:02:00,
2013-11-08 05:08:00,45.4,29.2,29.97,NW,317,1.0,2.0,53,0.00,,,0.00,0,HR-IXPWINDi_r2_v1.2.,2013-11-08 13:08:00,
2013-11-08 05:13:00,44.7,29.5,29.97,NW,317,1.0,2.0,55,0.00,,,0.00,0,HR-IXPWINDi_r2_v1.2.,2013-11-08 13:13:00,
2013-11-08 05:18:00,45.1,29.0,29.97,NW,317,1.0,3.0,53,0.00,,,0.00,0,HR-IXPWINDi_r2_v1.2.,2013-11-08 13:18:00,
2013-11-08 05:23:00,45.6,28.5,29.97,NW,317,0.0,3.0,51,0.00,,,0.00,0,HR-IXPWINDi_r2_v1.2.,2013-11-08 13:23:00,
2013-11-08 05:28:00,45.8,28.7,29.97,NW,317,0.0,2.0,51,0.00,,,0.00,0,HR-IXPWINDi_r2_v1.2.,2013-11-08 13:28:00,
2013-11-08 05:33:00,45.6,29.0,29.97,NW,317,0.0,2.0,52,0.00,,,0.00,0,HR-IXPWINDi_r2_v1.2.,2013-11-08 13:33:00,
2013-11-08 05:39:00,45.1,29.0,29.98,NW,317,0.0,2.0,53,0.00,,,0.00,0,HR-IXPWINDi_r2_v1.2.,2013-11-08 13:39:00,
2013-11-08 05:44:00,44.8,28.7,29.98,NW,317,1.0,2.0,53,0.00,,,0.00,0,HR-IXPWINDi_r2_v1.2.,2013-11-08 13:44:00,
2013-11-08 05:49:00,44.6,28.0,29.98,NW,317,0.0,3.0,52,0.00,,,0.00,0,HR-IXPWINDi_r2_v1.2.,2013-11-08 13:49:00,
2013-11-08 05:54:00,44.7,29.1,29.98,NW,317,0.0,3.0,54,0.00,,,0.00,0,HR-IXPWINDi_r2_v1.2.,2013-11-08 13:54:00,
2013-11-08 05:59:00,44.5,29.8,29.98,NW,317,2.0,2.0,56,0.00,,,0.00,0,HR-IXPWINDi_r2_v1.2.,2013-11-08 13:59:00,
2013-11-08 06:04:00,44.4,29.7,29.98,NW,317,0.0,2.0,56,0.00,,,0.00,0,HR-IXPWINDi_r2_v1.2.,2013-11-08 14:04:00,
2013-11-08 06:10:00,44.3,29.6,29.98,NW,317,0.0,2.0,56,0.00,,,0.00,0,HR-IXPWINDi_r2_v1.2.,2013-11-08 14:10:00,
2013-11-08 06:15:00,44.4,28.3,29.98,NW,317,0.0,2.0,53,0.00,,,0.00,0,HR-IXPWINDi_r2_v1.2.,2013-11-08 14:15:00,
2013-11-08 06:20:00,44.4,29.2,29.98,NW,317,2.0,3.0,55,0.00,,,0.00,0,HR-IXPWINDi_r2_v1.2.,2013-11-08 14:20:00,
2013-11-08 06:25:00,44.5,28.4,29.98,NW,317,2.0,3.0,53,0.00,,,0.00,5,HR-IXPWINDi_r2_v1.2.,2013-11-08 14:25:00,
2013-11-08 06:31:00,45.0,28.4,29.98,NW,317,2.0,3.0,52,0.00,,,0.00,7,HR-IXPWINDi_r2_v1.2.,2013-11-08 14:31:00,
2013-11-08 06:36:00,45.9,26.8,29.98,NW,317,2.0,3.0,47,0.00,,,0.00,9,HR-IXPWINDi_r2_v1.2.,2013-11-08 14:36:00,
2013-11-08 06:41:00,46.9,27.2,29.98,NW,317,0.0,4.0,46,0.00,,,0.00,11,HR-IXPWINDi_r2_v1.2.,2013-11-08 14:41:00,
2013-11-08 06:47:00,46.2,28.1,29.98,NW,317,0.0,4.0,49,0.00,,,0.00,12,HR-IXPWINDi_r2_v1.2.,2013-11-08 14:47:00,
2013-11-08 06:52:00,45.4,29.2,29.98,NW,317,1.0,3.0,53,0.00,,,0.00,26,HR-IXPWINDi_r2_v1.2.,2013-11-08 14:52:00,
2013-11-08 06:57:00,45.0,30.7,29.98,NW,317,0.0,2.0,57,0.00,,,0.00,30,HR-IXPWINDi_r2_v1.2.,2013-11-08 14:57:00,
2013-11-08 07:02:00,45.2,30.8,29.99,NW,317,1.0,2.0,57,0.00,,,0.00,32,HR-IXPWINDi_r2_v1.2.,2013-11-08 15:02:00,
2013-11-08 07:08:00,47.6,28.9,29.99,NW,317,2.0,3.0,48,0.00,,,0.00,33,HR-IXPWINDi_r2_v1.2.,2013-11-08 15:08:00,
2013-11-08 07:13:00,50.5,28.2,29.99,NW,317,0.0,3.0,42,0.00,,,0.00,35,HR-IXPWINDi_r2_v1.2.,2013-11-08 15:13:00,
2013-11-08 07:18:00,51.4,29.6,29.99,NW,317,0.0,2.0,43,0.00,,,0.00,39,HR-IXPWINDi_r2_v1.2.,2013-11-08 15:18:00,
2013-11-08 07:24:00,51.6,30.4,30.00,NW,317,0.0,2.0,44,0.00,,,0.00,39,HR-IXPWINDi_r2_v1.2.,2013-11-08 15:24:00,
2013-11-08 07:29:00,51.9,31.2,30.00,NW,317,0.0,2.0,45,0.00,,,0.00,44,HR-IXPWINDi_r2_v1.2.,2013-11-08 15:29:00,
2013-11-08 07:34:00,52.8,33.1,30.00,NW,317,0.0,2.0,47,0.00,,,0.00,54,HR-IXPWINDi_r2_v1.2.,2013-11-08 15:34:00,
2013-11-08 07:39:00,53.6,32.7,30.00,NW,317,0.0,2.0,45,0.00,,,0.00,42,HR-IXPWINDi_r2_v1.2.,2013-11-08 15:39:00,
2013-11-08 07:44:00,54.9,33.9,30.00,NW,317,0.0,2.0,45,0.00,,,0.00,58,HR-IXPWINDi_r2_v1.2.,2013-11-08 15:44:00,
2013-11-08 07:49:00,55.5,33.3,30.00,NW,317,0.0,2.0,43,0.00,,,0.00,47,HR-IXPWINDi_r2_v1.2.,2013-11-08 15:49:00,
2013-11-08 07:54:00,56.7,32.6,30.00,NW,317,0.0,2.0,40,0.00,,,0.00,44,HR-IXPWINDi_r2_v1.2.,2013-11-08 15:54:00,
2013-11-08 08:00:00,58.0,31.8,30.00,NW,317,0.0,2.0,37,0.00,,,0.00,44,HR-IXPWINDi_r2_v1.2.,2013-11-08 16:00:00,
2013-11-08 08:05:00,58.7,32.5,30.00,NW,317,0.0,1.0,37,0.00,,,0.00,49,HR-IXPWINDi_r2_v1.2.,2013-11-08 16:05:00,
2013-11-08 08:10:00,59.3,33.0,30.00,NW,317,0.0,2.0,37,0.00,,,0.00,46,HR-IXPWINDi_r2_v1.2.,2013-11-08 16:10:00,
2013-11-08 08:16:00,60.1,34.4,30.00,NW,317,0.0,2.0,38,0.00,,,0.00,47,HR-IXPWINDi_r2_v1.2.,2013-11-08 16:16:00,
2013-11-08 08:21:00,59.9,35.5,30.00,NW,317,1.0,2.0,40,0.00,,,0.00,47,HR-IXPWINDi_r2_v1.2.,2013-11-08 16:21:00,
2013-11-08 08:26:00,61.0,35.2,30.00,NW,317,0.0,1.0,38,0.00,,,0.00,49,HR-IXPWINDi_r2_v1.2.,2013-11-08 16:26:00,
2013-11-08 08:31:00,61.7,32.3,30.00,NW,317,0.0,1.0,33,0.00,,,0.00,49,HR-IXPWINDi_r2_v1.2.,2013-11-08 16:31:00,
2013-11-08 08:36:00,62.3,32.8,30.00,NW,317,0.0,1.0,33,0.00,,,0.00,56,HR-IXPWINDi_r2_v1.2.,2013-11-08 16:36:00,
2013-11-08 08:42:00,63.0,34.9,30.00,NW,317,1.0,2.0,35,0.00,,,0.00,49,HR-IXPWINDi_r2_v1.2.,2013-11-08 16:42:00,
2013-11-08 08:47:00,63.2,34.3,30.00,NW,317,0.0,2.0,34,0.00,,,0.00,49,HR-IXPWINDi_r2_v1.2.,2013-11-08 16:47:00,
2013-11-08 08:52:00,63.6,33.2,30.00,SSE,148,1.0,3.0,32,0.00,,,0.00,49,HR-IXPWINDi_r2_v1.2.,2013-11-08 16:52:00,
2013-11-08 08:57:00,64.2,31.3,30.00,South,178,0.0,4.0,29,0.00,,,0.00,53,HR-IXPWINDi_r2_v1.2.,2013-11-08 16:57:00,
2013-11-08 09:02:00,64.5,31.5,29.99,South,170,2.0,4.0,29,0.00,,,0.00,58,HR-IXPWINDi_r2_v1.2.,2013-11-08 17:02:00,
2013-11-08 09:08:00,65.1,30.3,29.99,South,170,1.0,4.0,27,0.00,,,0.00,79,HR-IXPWINDi_r2_v1.2.,2013-11-08 17:08:00,
2013-11-08 09:13:00,65.4,32.3,29.99,South,173,0.0,4.0,29,0.00,,,0.00,144,HR-IXPWINDi_r2_v1.2.,2013-11-08 17:13:00,
2013-11-08 09:18:00,65.5,31.5,30.00,South,171,0.0,4.0,28,0.00,,,0.00,49,HR-IXPWINDi_r2_v1.2.,2013-11-08 17:18:00,
2013-11-08 09:23:00,66.2,31.2,30.00,South,169,3.0,4.0,27,0.00,,,0.00,49,HR-IXPWINDi_r2_v1.2.,2013-11-08 17:23:00,
2013-11-08 09:28:00,66.6,30.6,30.00,SE,146,0.0,4.0,26,0.00,,,0.00,49,HR-IXPWINDi_r2_v1.2.,2013-11-08 17:28:00,
2013-11-08 09:33:00,66.8,31.7,30.00,ENE,77,1.0,3.0,27,0.00,,,0.00,62,HR-IXPWINDi_r2_v1.2.,2013-11-08 17:33:00,
2013-11-08 09:38:00,68.2,30.0,29.99,SSE,166,2.0,4.0,24,0.00,,,0.00,79,HR-IXPWINDi_r2_v1.2.,2013-11-08 17:38:00,
2013-11-08 09:43:00,69.3,28.8,30.00,South,180,4.0,5.0,22,0.00,,,0.00,63,HR-IXPWINDi_r2_v1.2.,2013-11-08 17:43:00,
2013-11-08 09:48:00,69.9,29.3,30.00,ESE,115,0.0,5.0,22,0.00,,,0.00,62,HR-IXPWINDi_r2_v1.2.,2013-11-08 17:48:00,
2013-11-08 09:53:00,70.0,29.4,30.00,SSE,147,3.0,4.0,22,0.00,,,0.00,54,HR-IXPWINDi_r2_v1.2.,2013-11-08 17:53:00,
2013-11-08 09:59:00,70.3,29.7,29.99,South,171,1.0,4.0,22,0.00,,,0.00,411,HR-IXPWINDi_r2_v1.2.,2013-11-08 17:59:00,
2013-11-08 10:04:00,71.1,30.3,29.99,South,175,1.0,4.0,22,0.00,,,0.00,524,HR-IXPWINDi_r2_v1.2.,2013-11-08 18:04:00,
2013-11-08 10:09:00,71.2,31.5,29.99,South,172,0.0,4.0,23,0.00,,,0.00,570,HR-IXPWINDi_r2_v1.2.,2013-11-08 18:09:00,
2013-11-08 10:14:00,71.2,30.4,29.99,ESE,118,1.0,4.0,22,0.00,,,0.00,559,HR-IXPWINDi_r2_v1.2.,2013-11-08 18:14:00,
2013-11-08 10:20:00,71.7,30.8,29.99,East,99,0.0,2.0,22,0.00,,,0.00,534,HR-IXPWINDi_r2_v1.2.,2013-11-08 18:20:00,
2013-11-08 10:25:00,72.6,30.4,29.99,East,84,2.0,3.0,21,0.00,,,0.00,513,HR-IXPWINDi_r2_v1.2.,2013-11-08 18:25:00,
2013-11-08 10:30:00,73.6,31.3,29.99,SSE,158,1.0,3.0,21,0.00,,,0.00,487,HR-IXPWINDi_r2_v1.2.,2013-11-08 18:30:00,
2013-11-08 10:35:00,74.8,31.0,29.98,South,171,1.0,4.0,20,0.00,,,0.00,468,HR-IXPWINDi_r2_v1.2.,2013-11-08 18:35:00,
2013-11-08 10:40:00,74.9,32.3,29.98,South,171,1.0,4.0,21,0.00,,,0.00,462,HR-IXPWINDi_r2_v1.2.,2013-11-08 18:40:00,
2013-11-08 10:45:00,75.6,31.7,29.98,South,171,0.0,3.0,20,0.00,,,0.00,468,HR-IXPWINDi_r2_v1.2.,2013-11-08 18:45:00,
2013-11-08 10:51:00,76.3,32.3,29.98,South,170,1.0,3.0,20,0.00,,,0.00,489,HR-IXPWINDi_r2_v1.2.,2013-11-08 18:51:00,
2013-11-08 10:56:00,77.1,31.7,29.98,South,170,0.0,4.0,19,0.00,,,0.00,519,HR-IXPWINDi_r2_v1.2.,2013-11-08 18:56:00,
2013-11-08 11:01:00,78.4,32.7,29.97,South,176,0.0,4.0,19,0.00,,,0.00,550,HR-IXPWINDi_r2_v1.2.,2013-11-08 19:01:00,
2013-11-08 11:06:00,78.4,34.0,29.97,South,180,0.0,4.0,20,0.00,,,0.00,584,HR-IXPWINDi_r2_v1.2.,2013-11-08 19:06:00,
2013-11-08 11:12:00,78.5,31.5,29.97,South,180,2.0,5.0,18,0.00,,,0.00,596,HR-IXPWINDi_r2_v1.2.,2013-11-08 19:12:00,
2013-11-08 11:17:00,79.2,30.6,29.97,South,178,2.0,5.0,17,0.00,,,0.00,589,HR-IXPWINDi_r2_v1.2.,2013-11-08 19:17:00,
2013-11-08 11:22:00,79.4,33.5,29.97,South,188,1.0,5.0,19,0.00,,,0.00,557,HR-IXPWINDi_r2_v1.2.,2013-11-08 19:22:00,
2013-11-08 11:27:00,79.8,35.2,29.96,SSE,149,3.0,5.0,20,0.00,,,0.00,522,HR-IXPWINDi_r2_v1.2.,2013-11-08 19:27:00,
2013-11-08 11:33:00,79.8,33.9,29.96,South,180,3.0,5.0,19,0.00,,,0.00,494,HR-IXPWINDi_r2_v1.2.,2013-11-08 19:33:00,
2013-11-08 11:38:00,80.1,34.1,29.96,South,171,1.0,6.0,19,0.00,,,0.00,492,HR-IXPWINDi_r2_v1.2.,2013-11-08 19:38:00,
2013-11-08 11:43:00,81.1,36.2,29.95,South,181,1.0,6.0,20,0.00,,,0.00,512,HR-IXPWINDi_r2_v1.2.,2013-11-08 19:43:00,
2013-11-08 11:48:00,81.1,33.6,29.95,East,98,0.0,6.0,18,0.00,,,0.00,545,HR-IXPWINDi_r2_v1.2.,2013-11-08 19:48:00,
2013-11-08 11:54:00,81.0,38.6,29.95,SSE,165,0.0,6.0,22,0.00,,,0.00,585,HR-IXPWINDi_r2_v1.2.,2013-11-08 19:54:00,
2013-11-08 11:59:00,81.6,40.2,29.95,SSE,163,3.0,6.0,23,0.00,,,0.00,615,HR-IXPWINDi_r2_v1.2.,2013-11-08 19:59:00,
2013-11-08 12:04:00,81.1,37.5,29.94,SE,137,1.0,5.0,21,0.00,,,0.00,629,HR-IXPWINDi_r2_v1.2.,2013-11-08 20:04:00,
2013-11-08 12:09:00,81.5,39.0,29.94,SSE,163,1.0,5.0,22,0.00,,,0.00,629,HR-IXPWINDi_r2_v1.2.,2013-11-08 20:09:00,
2013-11-08 12:14:00,81.8,39.2,29.94,South,180,1.0,5.0,22,0.00,,,0.00,626,HR-IXPWINDi_r2_v1.2.,2013-11-08 20:14:00,
2013-11-08 12:19:00,81.2,37.5,29.94,South,176,2.0,7.0,21,0.00,,,0.00,615,HR-IXPWINDi_r2_v1.2.,2013-11-08 20:19:00,
2013-11-08 12:24:00,82.0,39.4,29.93,South,188,5.0,8.0,22,0.00,,,0.00,598,HR-IXPWINDi_r2_v1.2.,2013-11-08 20:24:00,
2013-11-08 12:30:00,80.7,39.5,29.93,SSW,200,2.0,8.0,23,0.00,,,0.00,584,HR-IXPWINDi_r2_v1.2.,2013-11-08 20:30:00,
2013-11-08 12:35:00,81.1,43.9,29.93,South,187,3.0,7.0,27,0.00,,,0.00,577,HR-IXPWINDi_r2_v1.2.,2013-11-08 20:35:00,
2013-11-08 12:40:00,79.7,43.7,29.93,SSE,160,4.0,8.0,28,0.00,,,0.00,578,HR-IXPWINDi_r2_v1.2.,2013-11-08 20:40:00,
2013-11-08 12:45:00,78.8,44.7,29.93,WSW,254,2.0,9.0,30,0.00,,,0.00,591,HR-IXPWINDi_r2_v1.2.,2013-11-08 20:45:00,
2013-11-08 12:51:00,79.0,46.6,29.92,SSE,167,3.0,9.0,32,0.00,,,0.00,591,HR-IXPWINDi_r2_v1.2.,2013-11-08 20:51:00,
2013-11-08 12:56:00,78.4,47.7,29.92,SW,219,2.0,8.0,34,0.00,,,0.00,582,HR-IXPWINDi_r2_v1.2.,2013-11-08 20:56:00,
2013-11-08 13:01:00,78.3,48.4,29.92,South,179,6.0,9.0,35,0.00,,,0.00,575,HR-IXPWINDi_r2_v1.2.,2013-11-08 21:01:00,
2013-11-08 13:06:00,78.1,50.4,29.92,WSW,239,2.0,9.0,38,0.00,,,0.00,570,HR-IXPWINDi_r2_v1.2.,2013-11-08 21:06:00,
2013-11-08 13:12:00,77.3,51.7,29.91,West,272,2.0,9.0,41,0.00,,,0.00,557,HR-IXPWINDi_r2_v1.2.,2013-11-08 21:12:00,
2013-11-08 13:17:00,77.6,53.9,29.92,SSE,163,4.0,9.0,44,0.00,,,0.00,550,HR-IXPWINDi_r2_v1.2.,2013-11-08 21:17:00,
2013-11-08 13:22:00,77.3,53.6,29.92,South,187,2.0,8.0,44,0.00,,,0.00,541,HR-IXPWINDi_r2_v1.2.,2013-11-08 21:22:00,
2013-11-08 13:27:00,76.8,53.8,29.92,South,189,4.0,8.0,45,0.00,,,0.00,536,HR-IXPWINDi_r2_v1.2.,2013-11-08 21:27:00,
2013-11-08 13:32:00,76.2,52.0,29.91,South,188,4.0,9.0,43,0.00,,,0.00,527,HR-IXPWINDi_r2_v1.2.,2013-11-08 21:32:00,
2013-11-08 13:37:00,76.5,51.0,29.91,SSE,155,1.0,9.0,41,0.00,,,0.00,517,HR-IXPWINDi_r2_v1.2.,2013-11-08 21:37:00,
2013-11-08 13:43:00,76.0,49.2,29.91,South,175,6.0,10.0,39,0.00,,,0.00,508,HR-IXPWINDi_r2_v1.2.,2013-11-08 21:43:00,
2013-11-08 13:48:00,76.5,49.0,29.91,South,169,3.0,10.0,38,0.00,,,0.00,496,HR-IXPWINDi_r2_v1.2.,2013-11-08 21:48:00,
2013-11-08 13:53:00,76.4,48.2,29.91,SSE,153,0.0,8.0,37,0.00,,,0.00,485,HR-IXPWINDi_r2_v1.2.,2013-11-08 21:53:00,
2013-11-08 13:58:00,76.6,48.3,29.91,SSE,165,3.0,7.0,37,0.00,,,0.00,476,HR-IXPWINDi_r2_v1.2.,2013-11-08 21:58:00,
2013-11-08 14:03:00,77.6,47.7,29.91,South,182,5.0,7.0,35,0.00,,,0.00,464,HR-IXPWINDi_r2_v1.2.,2013-11-08 22:03:00,
2013-11-08 14:08:00,77.2,47.4,29.91,South,173,3.0,9.0,35,0.00,,,0.00,452,HR-IXPWINDi_r2_v1.2.,2013-11-08 22:08:00,
2013-11-08 14:13:00,77.2,47.4,29.90,SSE,149,2.0,9.0,35,0.00,,,0.00,438,HR-IXPWINDi_r2_v1.2.,2013-11-08 22:13:00,
2013-11-08 14:18:00,77.4,48.3,29.91,South,178,2.0,6.0,36,0.00,,,0.00,424,HR-IXPWINDi_r2_v1.2.,2013-11-08 22:18:00,
2013-11-08 14:23:00,76.3,47.4,29.90,SE,143,1.0,7.0,36,0.00,,,0.00,411,HR-IXPWINDi_r2_v1.2.,2013-11-08 22:23:00,
2013-11-08 14:29:00,76.2,47.3,29.90,WSW,245,4.0,7.0,36,0.00,,,0.00,397,HR-IXPWINDi_r2_v1.2.,2013-11-08 22:29:00,
2013-11-08 14:34:00,75.3,47.9,29.90,SSE,159,4.0,9.0,38,0.00,,,0.00,381,HR-IXPWINDi_r2_v1.2.,2013-11-08 22:34:00,
2013-11-08 14:39:00,76.1,48.6,29.90,SSE,152,2.0,9.0,38,0.00,,,0.00,369,HR-IXPWINDi_r2_v1.2.,2013-11-08 22:39:00,
2013-11-08 14:44:00,75.7,46.8,29.90,South,177,0.0,6.0,36,0.00,,,0.00,353,HR-IXPWINDi_r2_v1.2.,2013-11-08 22:44:00,
2013-11-08 14:49:00,75.8,49.0,29.90,South,190,1.0,5.0,39,0.00,,,0.00,339,HR-IXPWINDi_r2_v1.2.,2013-11-08 22:49:00,
2013-11-08 14:55:00,74.9,48.2,29.90,SSE,163,1.0,6.0,39,0.00,,,0.00,327,HR-IXPWINDi_r2_v1.2.,2013-11-08 22:55:00,
2013-11-08 15:00:00,74.7,45.2,29.90,South,178,1.0,6.0,35,0.00,,,0.00,311,HR-IXPWINDi_r2_v1.2.,2013-11-08 23:00:00,
2013-11-08 15:05:00,73.7,46.5,29.90,SSW,211,7.0,7.0,38,0.00,,,0.00,295,HR-IXPWINDi_r2_v1.2.,2013-11-08 23:05:00,
2013-11-08 15:10:00,72.9,47.8,29.90,South,185,1.0,7.0,41,0.00,,,0.00,44,HR-IXPWINDi_r2_v1.2.,2013-11-08 23:10:00,
2013-11-08 15:15:00,72.5,47.4,29.90,South,173,2.0,7.0,41,0.00,,,0.00,40,HR-IXPWINDi_r2_v1.2.,2013-11-08 23:15:00,
2013-11-08 15:20:00,72.2,46.5,29.89,South,183,2.0,6.0,40,0.00,,,0.00,42,HR-IXPWINDi_r2_v1.2.,2013-11-08 23:20:00,
2013-11-08 15:25:00,72.2,47.8,29.89,SSE,167,4.0,4.0,42,0.00,,,0.00,65,HR-IXPWINDi_r2_v1.2.,2013-11-08 23:25:00,
2013-11-08 15:31:00,72.0,48.2,29.89,SSE,164,2.0,4.0,43,0.00,,,0.00,90,HR-IXPWINDi_r2_v1.2.,2013-11-08 23:31:00,
2013-11-08 15:36:00,71.5,49.0,29.89,South,184,1.0,6.0,45,0.00,,,0.00,63,HR-IXPWINDi_r2_v1.2.,2013-11-08 23:36:00,
2013-11-08 15:41:00,71.1,50.4,29.89,South,170,4.0,6.0,48,0.00,,,0.00,32,HR-IXPWINDi_r2_v1.2.,2013-11-08 23:41:00,
2013-11-08 15:46:00,70.4,49.7,29.89,South,174,3.0,6.0,48,0.00,,,0.00,28,HR-IXPWINDi_r2_v1.2.,2013-11-08 23:46:00,
2013-11-08 15:52:00,69.9,49.8,29.89,South,181,0.0,6.0,49,0.00,,,0.00,25,HR-IXPWINDi_r2_v1.2.,2013-11-08 23:52:00,
2013-11-08 15:57:00,69.4,49.4,29.89,South,176,0.0,5.0,49,0.00,,,0.00,21,HR-IXPWINDi_r2_v1.2.,2013-11-08 23:57:00,
2013-11-08 16:02:00,69.0,50.1,29.90,SSW,192,3.0,7.0,51,0.00,,,0.00,19,HR-IXPWINDi_r2_v1.2.,2013-11-09 00:02:00,
2013-11-08 16:07:00,68.7,48.7,29.90,South,175,3.0,7.0,49,0.00,,,0.00,19,HR-IXPWINDi_r2_v1.2.,2013-11-09 00:07:00,
2013-11-08 16:12:00,68.3,49.4,29.90,SSW,193,3.0,8.0,51,0.00,,,0.00,18,HR-IXPWINDi_r2_v1.2.,2013-11-09 00:12:00,
2013-11-08 16:18:00,67.8,47.4,29.90,South,187,3.0,8.0,48,0.00,,,0.00,16,HR-IXPWINDi_r2_v1.2.,2013-11-09 00:18:00,
2013-11-08 16:23:00,67.6,48.3,29.90,South,170,2.0,6.0,50,0.00,,,0.00,16,HR-IXPWINDi_r2_v1.2.,2013-11-09 00:23:00,
2013-11-08 16:28:00,67.2,48.4,29.90,West,269,0.0,6.0,51,0.00,,,0.00,14,HR-IXPWINDi_r2_v1.2.,2013-11-09 00:28:00,
2013-11-08 16:34:00,66.8,49.1,29.90,SSW,194,5.0,5.0,53,0.00,,,0.00,12,HR-IXPWINDi_r2_v1.2.,2013-11-09 00:34:00,
2013-11-08 16:39:00,66.5,49.3,29.90,South,169,0.0,6.0,54,0.00,,,0.00,11,HR-IXPWINDi_r2_v1.2.,2013-11-09 00:39:00,
2013-11-08 16:44:00,66.2,49.0,29.90,SSW,211,1.0,6.0,54,0.00,,,0.00,9,HR-IXPWINDi_r2_v1.2.,2013-11-09 00:44:00,
2013-11-08 16:49:00,65.4,48.3,29.90,SSW,211,0.0,2.0,54,0.00,,,0.00,7,HR-IXPWINDi_r2_v1.2.,2013-11-09 00:49:00,
2013-11-08 16:54:00,64.2,48.1,29.90,SSW,211,0.0,1.0,56,0.00,,,0.00,5,HR-IXPWINDi_r2_v1.2.,2013-11-09 00:54:00,
2013-11-08 17:00:00,62.7,47.7,29.91,SSW,211,0.0,1.0,58,0.00,,,0.00,0,HR-IXPWINDi_r2_v1.2.,2013-11-09 01:00:00,
2013-11-08 17:05:00,61.4,47.8,29.91,SSW,211,0.0,1.0,61,0.00,,,0.00,0,HR-IXPWINDi_r2_v1.2.,2013-11-09 01:05:00,
2013-11-08 17:10:00,60.4,47.7,29.91,SSW,211,0.0,1.0,63,0.00,,,0.00,0,HR-IXPWINDi_r2_v1.2.,2013-11-09 01:10:00,
2013-11-08 17:15:00,59.3,47.5,29.91,SSW,211,0.0,1.0,65,0.00,,,0.00,0,HR-IXPWINDi_r2_v1.2.,2013-11-09 01:15:00,
2013-11-08 17:20:00,58.6,47.6,29.91,SSW,211,1.0,1.0,67,0.00,,,0.00,0,HR-IXPWINDi_r2_v1.2.,2013-11-09 01:20:00,
2013-11-08 17:25:00,57.5,46.6,29.91,SSW,211,0.0,1.0,67,0.00,,,0.00,0,HR-IXPWINDi_r2_v1.2.,2013-11-09 01:25:00,
2013-11-08 17:30:00,57.0,46.5,29.92,SSW,211,0.0,1.0,68,0.00,,,0.00,0,HR-IXPWINDi_r2_v1.2.,2013-11-09 01:30:00,
2013-11-08 17:36:00,56.4,45.9,29.92,SSW,211,1.0,1.0,68,0.00,,,0.00,0,HR-IXPWINDi_r2_v1.2.,2013-11-09 01:36:00,
2013-11-08 17:41:00,56.3,45.4,29.92,SSW,211,1.0,2.0,67,0.00,,,0.00,0,HR-IXPWINDi_r2_v1.2.,2013-11-09 01:41:00,
2013-11-08 17:46:00,56.7,45.4,29.92,SW,222,0.0,2.0,66,0.00,,,0.00,0,HR-IXPWINDi_r2_v1.2.,2013-11-09 01:46:00,
2013-11-08 17:51:00,57.5,45.8,29.92,SW,228,0.0,2.0,65,0.00,,,0.00,0,HR-IXPWINDi_r2_v1.2.,2013-11-09 01:51:00,
2013-11-08 17:56:00,57.1,45.4,29.92,SW,228,1.0,2.0,65,0.00,,,0.00,0,HR-IXPWINDi_r2_v1.2.,2013-11-09 01:56:00,
2013-11-08 18:01:00,57.4,44.9,29.92,WSW,242,0.0,3.0,63,0.00,,,0.00,0,HR-IXPWINDi_r2_v1.2.,2013-11-09 02:01:00,
2013-11-08 18:06:00,56.8,45.1,29.92,West,281,0.0,3.0,65,0.00,,,0.00,0,HR-IXPWINDi_r2_v1.2.,2013-11-09 02:06:00,
2013-11-08 18:12:00,57.1,45.4,29.92,WNW,291,2.0,4.0,65,0.00,,,0.00,0,HR-IXPWINDi_r2_v1.2.,2013-11-09 02:12:00,
2013-11-08 18:17:00,57.6,45.0,29.92,WNW,296,1.0,4.0,63,0.00,,,0.00,0,HR-IXPWINDi_r2_v1.2.,2013-11-09 02:17:00,
2013-11-08 18:22:00,57.5,45.0,29.93,NW,304,0.0,3.0,63,0.00,,,0.00,0,HR-IXPWINDi_r2_v1.2.,2013-11-09 02:22:00,
2013-11-08 18:27:00,56.6,44.1,29.93,NW,304,0.0,3.0,63,0.00,,,0.00,0,HR-IXPWINDi_r2_v1.2.,2013-11-09 02:27:00,
2013-11-08 18:32:00,56.1,44.0,29.93,NW,304,2.0,2.0,64,0.00,,,0.00,0,HR-IXPWINDi_r2_v1.2.,2013-11-09 02:32:00,
2013-11-08 18:37:00,55.7,44.5,29.93,NW,313,0.0,3.0,66,0.00,,,0.00,0,HR-IXPWINDi_r2_v1.2.,2013-11-09 02:37:00,
2013-11-08 18:42:00,55.4,44.2,29.93,NW,313,2.0,3.0,66,0.00,,,0.00,0,HR-IXPWINDi_r2_v1.2.,2013-11-09 02:42:00,
2013-11-08 18:47:00,55.6,44.0,29.93,NW,314,2.0,3.0,65,0.00,,,0.00,0,HR-IXPWINDi_r2_v1.2.,2013-11-09 02:47:00,
2013-11-08 18:53:00,55.6,43.6,29.93,NW,324,2.0,4.0,64,0.00,,,0.00,0,HR-IXPWINDi_r2_v1.2.,2013-11-09 02:53:00,
2013-11-08 18:58:00,55.8,43.3,29.93,NNW,327,2.0,5.0,63,0.00,,,0.00,0,HR-IXPWINDi_r2_v1.2.,2013-11-09 02:58:00,
2013-11-08 19:03:00,56.0,42.7,29.93,NW,324,2.0,5.0,61,0.00,,,0.00,0,HR-IXPWINDi_r2_v1.2.,2013-11-09 03:03:00,
2013-11-08 19:08:00,55.5,42.6,29.93,NW,324,0.0,5.0,62,0.00,,,0.00,0,HR-IXPWINDi_r2_v1.2.,2013-11-09 03:08:00,
2013-11-08 19:14:00,54.9,42.5,29.94,NW,320,2.0,2.0,63,0.00,,,0.00,0,HR-IXPWINDi_r2_v1.2.,2013-11-09 03:14:00,
2013-11-08 19:19:00,54.9,42.1,29.93,NW,318,4.0,4.0,62,0.00,,,0.00,0,HR-IXPWINDi_r2_v1.2.,2013-11-09 03:19:00,
2013-11-08 19:24:00,54.9,41.7,29.93,NW,318,1.0,4.0,61,0.00,,,0.00,0,HR-IXPWINDi_r2_v1.2.,2013-11-09 03:24:00,
2013-11-08 19:29:00,55.3,41.6,29.94,NW,317,1.0,3.0,60,0.00,,,0.00,0,HR-IXPWINDi_r2_v1.2.,2013-11-09 03:29:00,
2013-11-08 19:34:00,54.8,41.6,29.93,NW,317,0.0,3.0,61,0.00,,,0.00,0,HR-IXPWINDi_r2_v1.2.,2013-11-09 03:34:00,
2013-11-08 19:40:00,53.8,41.0,29.93,NW,317,0.0,2.0,62,0.00,,,0.00,0,HR-IXPWINDi_r2_v1.2.,2013-11-09 03:40:00,
2013-11-08 19:45:00,53.4,40.7,29.93,NNW,333,0.0,3.0,62,0.00,,,0.00,0,HR-IXPWINDi_r2_v1.2.,2013-11-09 03:45:00,
2013-11-08 19:50:00,52.9,40.6,29.94,NNW,333,0.0,3.0,63,0.00,,,0.00,0,HR-IXPWINDi_r2_v1.2.,2013-11-09 03:50:00,
2013-11-08 19:55:00,53.0,40.7,29.94,NNW,333,0.0,3.0,63,0.00,,,0.00,0,HR-IXPWINDi_r2_v1.2.,2013-11-09 03:55:00,
2013-11-08 20:00:00,52.3,40.8,29.94,NNW,333,0.0,3.0,65,0.00,,,0.00,0,HR-IXPWINDi_r2_v1.2.,2013-11-09 04:00:00,
2013-11-08 20:06:00,51.5,40.5,29.94,NNW,333,0.0,1.0,66,0.00,,,0.00,0,HR-IXPWINDi_r2_v1.2.,2013-11-09 04:06:00,
2013-11-08 20:11:00,51.2,40.6,29.94,NNW,333,1.0,1.0,67,0.00,,,0.00,0,HR-IXPWINDi_r2_v1.2.,2013-11-09 04:11:00,
2013-11-08 20:16:00,50.9,40.3,29.94,NNW,333,1.0,2.0,67,0.00,,,0.00,0,HR-IXPWINDi_r2_v1.2.,2013-11-09 04:16:00,
2013-11-08 20:21:00,51.1,39.7,29.94,NNW,333,0.0,2.0,65,0.00,,,0.00,0,HR-IXPWINDi_r2_v1.2.,2013-11-09 04:21:00,
2013-11-08 20:26:00,52.1,39.0,29.94,NNW,333,1.0,2.0,61,0.00,,,0.00,0,HR-IXPWINDi_r2_v1.2.,2013-11-09 04:26:00,
2013-11-08 20:32:00,53.0,38.6,29.94,NNW,333,1.0,2.0,58,0.00,,,0.00,0,HR-IXPWINDi_r2_v1.2.,2013-11-09 04:32:00,
2013-11-08 21:10:00,49.9,37.8,29.95,WNW,292,0.0,2.0,63,0.00,,,0.00,0,HR-IXPWINDi_r2_v1.2.,2013-11-09 05:10:00,
2013-11-08 21:15:00,49.2,37.9,29.95,WNW,292,0.0,1.0,65,0.00,,,0.00,0,HR-IXPWINDi_r2_v1.2.,2013-11-09 05:15:00,
2013-11-08 21:20:00,49.0,37.7,29.95,WNW,292,0.0,0.0,65,0.00,,,0.00,0,HR-IXPWINDi_r2_v1.2.,2013-11-09 05:20:00,
2013-11-08 21:25:00,48.0,37.5,29.95,WNW,292,0.0,1.0,67,0.00,,,0.00,0,HR-IXPWINDi_r2_v1.2.,2013-11-09 05:25:00,
2013-11-08 21:31:00,47.3,37.6,29.96,WNW,292,0.0,1.0,69,0.00,,,0.00,0,HR-IXPWINDi_r2_v1.2.,2013-11-09 05:31:00,
2013-11-08 21:36:00,46.9,37.6,29.96,WNW,292,1.0,2.0,70,0.00,,,0.00,0,HR-IXPWINDi_r2_v1.2.,2013-11-09 05:36:00,
2013-11-08 21:41:00,46.9,37.6,29.96,WNW,292,2.0,2.0,70,0.00,,,0.00,0,HR-IXPWINDi_r2_v1.2.,2013-11-09 05:41:00,
2013-11-08 21:46:00,47.2,37.1,29.96,NW,309,1.0,3.0,68,0.00,,,0.00,0,HR-IXPWINDi_r2_v1.2.,2013-11-09 05:46:00,
2013-11-08 21:51:00,47.9,36.3,29.96,NW,309,2.0,3.0,64,0.00,,,0.00,0,HR-IXPWINDi_r2_v1.2.,2013-11-09 05:51:00,
2013-11-08 21:56:00,48.8,35.5,29.96,NW,309,1.0,3.0,60,0.00,,,0.00,0,HR-IXPWINDi_r2_v1.2.,2013-11-09 05:56:00,
2013-11-08 22:02:00,49.9,35.2,29.96,NW,311,2.0,3.0,57,0.00,,,0.00,0,HR-IXPWINDi_r2_v1.2.,2013-11-09 06:02:00,
2013-11-08 22:07:00,50.3,34.7,29.96,NW,310,1.0,3.0,55,0.00,,,0.00,0,HR-IXPWINDi_r2_v1.2.,2013-11-09 06:07:00,
2013-11-08 22:12:00,50.8,34.3,29.96,NW,312,1.0,3.0,53,0.00,,,0.00,0,HR-IXPWINDi_r2_v1.2.,2013-11-09 06:12:00,
2013-11-08 22:17:00,51.3,33.8,29.96,NW,308,1.0,3.0,51,0.00,,,0.00,0,HR-IXPWINDi_r2_v1.2.,2013-11-09 06:17:00,
2013-11-08 22:23:00,51.8,33.7,29.96,WNW,300,0.0,3.0,50,0.00,,,0.00,0,HR-IXPWINDi_r2_v1.2.,2013-11-09 06:23:00,
2013-11-08 22:28:00,50.3,35.2,29.96,WNW,300,0.0,3.0,56,0.00,,,0.00,0,HR-IXPWINDi_r2_v1.2.,2013-11-09 06:28:00,
2013-11-08 22:33:00,49.2,35.0,29.96,WNW,300,1.0,1.0,58,0.00,,,0.00,0,HR-IXPWINDi_r2_v1.2.,2013-11-09 06:33:00,
2013-11-08 22:38:00,48.8,35.1,29.97,WNW,300,0.0,1.0,59,0.00,,,0.00,0,HR-IXPWINDi_r2_v1.2.,2013-11-09 06:38:00,
2013-11-08 22:43:00,48.4,34.3,29.97,WNW,300,0.0,2.0,58,0.00,,,0.00,0,HR-IXPWINDi_r2_v1.2.,2013-11-09 06:43:00,
2013-11-08 22:48:00,47.8,35.0,29.97,WNW,300,2.0,2.0,61,0.00,,,0.00,0,HR-IXPWINDi_r2_v1.2.,2013-11-09 06:48:00,
2013-11-08 22:54:00,47.9,35.5,29.97,WNW,300,0.0,3.0,62,0.00,,,0.00,0,HR-IXPWINDi_r2_v1.2.,2013-11-09 06:54:00,
2013-11-08 22:59:00,47.2,36.0,29.97,WNW,300,0.0,3.0,65,0.00,,,0.00,0,HR-IXPWINDi_r2_v1.2.,2013-11-09 06:59:00,
2013-11-08 23:04:00,46.7,35.9,29.97,WNW,300,1.0,2.0,66,0.00,,,0.00,0,HR-IXPWINDi_r2_v1.2.,2013-11-09 07:04:00,
2013-11-08 23:09:00,46.8,35.2,29.97,WNW,300,0.0,2.0,64,0.00,,,0.00,0,HR-IXPWINDi_r2_v1.2.,2013-11-09 07:09:00,
2013-11-08 23:15:00,46.9,34.5,29.97,WNW,300,0.0,2.0,62,0.00,,,0.00,0,HR-IXPWINDi_r2_v1.2.,2013-11-09 07:15:00,
2013-11-08 23:20:00,47.9,32.9,29.97,WNW,301,3.0,3.0,56,0.00,,,0.00,0,HR-IXPWINDi_r2_v1.2.,2013-11-09 07:20:00,
2013-11-08 23:25:00,49.6,31.7,29.97,WNW,301,2.0,3.0,50,0.00,,,0.00,0,HR-IXPWINDi_r2_v1.2.,2013-11-09 07:25:00,
2013-11-08 23:30:00,50.1,31.7,29.97,WNW,301,1.0,3.0,49,0.00,,,0.00,0,HR-IXPWINDi_r2_v1.2.,2013-11-09 07:30:00,
2013-11-08 23:35:00,50.3,31.3,29.97,WNW,301,0.0,2.0,48,0.00,,,0.00,0,HR-IXPWINDi_r2_v1.2.,2013-11-09 07:35:00,
2013-11-08 23:40:00,48.8,32.9,29.97,WNW,301,2.0,2.0,54,0.00,,,0.00,0,HR-IXPWINDi_r2_v1.2.,2013-11-09 07:40:00,
2013-11-08 23:45:00,47.4,33.3,29.97,WNW,301,1.0,2.0,58,0.00,,,0.00,0,HR-IXPWINDi_r2_v1.2.,2013-11-09 07:45:00,
2013-11-08 23:50:00,46.7,32.7,29.97,WNW,301,1.0,2.0,58,0.00,,,0.00,0,HR-IXPWINDi_r2_v1.2.,2013-11-09 07:50:00,
2013-11-08 23:56:00,47.0,32.5,29.97,WNW,301,1.0,1.0,57,0.00,,,0.00,0,HR-IXPWINDi_r2_v1.2.,2013-11-09 07:56:00,